Time,TemperatureF,DewpointF,PressureIn,WindDirection,WindDirectionDegrees,WindSpeedMPH,WindSpeedGustMPH,Humidity,HourlyPrecipIn,Conditions,Clouds,dailyrainin,SoftwareType,DateUTC
2013-01-26 00:00:00,26.6,19.1,29.98,NNE,29,0.0,0.0,73,0.00,,,0.00,Wunderground v.1.15,2013-01-26 07:00:00,
2013-01-26 00:13:00,48.0,22.3,30.04,SSE,150,4.6,4.6,36,0.00,CLR,,0.00,WeatherDisplay:10.37,2013-01-26 07:13:00,
2013-01-26 00:30:00,28.2,19.7,29.95,SSW,195,1.0,1.0,70,0.00,,,0.00,Wunderground v.1.15,2013-01-26 07:30:00,
2013-01-26 00:41:00,48.0,22.3,30.04,SSE,150,4.6,4.6,36,0.00,CLR,,0.00,WeatherDisplay:10.37,2013-01-26 07:41:00,
2013-01-26 00:58:00,48.0,22.3,30.04,SSE,150,4.6,4.6,36,0.00,CLR,,0.00,WeatherDisplay:10.37,2013-01-26 07:58:00,
2013-01-26 01:04:00,48.0,22.3,30.04,SSE,150,4.6,4.6,36,0.00,CLR,,0.00,WeatherDisplay:10.37,2013-01-26 08:04:00,
2013-01-26 01:19:00,48.0,22.3,30.04,SSE,150,4.6,4.6,36,0.00,CLR,,0.00,WeatherDisplay:10.37,2013-01-26 08:19:00,
2013-01-26 01:30:00,28.8,18.9,29.93,ESE,109,0.0,0.0,66,0.00,,,0.00,Wunderground v.1.15,2013-01-26 08:30:00,
2013-01-26 02:00:00,28.8,19.9,29.92,ESE,109,0.0,0.0,69,0.00,,,0.00,Wunderground v.1.15,2013-01-26 09:00:00,
2013-01-26 02:11:00,48.0,22.3,30.04,SSE,150,4.6,4.6,36,0.00,CLR,,0.00,WeatherDisplay:10.37,2013-01-26 09:11:00,
2013-01-26 02:30:00,26.9,19.7,29.92,East,98,1.0,1.0,74,0.00,,,0.00,Wunderground v.1.15,2013-01-26 09:30:00,
2013-01-26 02:35:00,48.0,22.3,30.04,SSE,150,4.6,4.6,36,0.00,CLR,,0.00,WeatherDisplay:10.37,2013-01-26 09:35:00,
2013-01-26 02:55:00,48.0,22.3,30.04,SSE,150,4.6,4.6,36,0.00,CLR,,0.00,WeatherDisplay:10.37,2013-01-26 09:55:00,
2013-01-26 03:14:00,48.0,22.3,30.04,SSE,150,4.6,4.6,36,0.00,CLR,,0.00,WeatherDisplay:10.37,2013-01-26 10:14:00,
2013-01-26 03:30:00,26.1,19.9,29.89,NE,34,0.0,0.0,77,0.00,,,0.00,Wunderground v.1.15,2013-01-26 10:30:00,
2013-01-26 03:36:00,48.0,22.3,30.04,SSE,150,4.6,4.6,36,0.00,CLR,,0.00,WeatherDisplay:10.37,2013-01-26 10:36:00,
2013-01-26 03:42:00,48.0,22.3,30.04,SSE,150,4.6,4.6,36,0.00,CLR,,0.00,WeatherDisplay:10.37,2013-01-26 10:42:00,
2013-01-26 03:56:00,48.0,22.3,30.04,SSE,150,4.6,4.6,36,0.00,CLR,,0.00,WeatherDisplay:10.37,2013-01-26 10:56:00,
2013-01-26 04:11:00,48.0,22.3,30.04,SSE,150,4.6,4.6,36,0.00,CLR,,0.00,WeatherDisplay:10.37,2013-01-26 11:11:00,
2013-01-26 04:23:00,30.0,21.4,29.89,West,259,4.6,0.0,70,0.00,CLR,,0.00,WeatherDisplay:10.37,2013-01-26 11:23:00,
2013-01-26 04:28:00,30.6,21.3,29.89,West,269,0.0,0.0,68,0.00,CLR,,0.00,WeatherDisplay:10.37,2013-01-26 11:28:00,
2013-01-26 04:33:00,30.6,21.3,29.89,West,270,0.0,0.0,68,0.00,CLR,,0.00,WeatherDisplay:10.37,2013-01-26 11:33:00,
2013-01-26 04:37:00,30.4,20.4,29.89,ESE,103,0.0,0.0,66,0.00,CLR,,0.00,WeatherDisplay:10.37,2013-01-26 11:37:00,
2013-01-26 04:38:00,30.4,20.4,29.89,ESE,103,0.0,0.0,66,0.00,CLR,,0.00,WeatherDisplay:10.37,2013-01-26 11:38:00,
2013-01-26 04:43:00,30.4,20.4,29.89,ESE,103,0.0,0.0,66,0.00,CLR,,0.00,WeatherDisplay:10.37,2013-01-26 11:43:00,
2013-01-26 05:14:00,29.7,20.8,29.90,ESE,105,0.0,0.0,69,0.00,CLR,,0.00,WeatherDisplay:10.37,2013-01-26 12:14:00,
2013-01-26 05:18:00,29.5,20.9,29.89,ESE,105,0.0,0.0,70,0.00,CLR,,0.00,WeatherDisplay:10.37,2013-01-26 12:18:00,
2013-01-26 05:19:00,29.5,20.9,29.89,ESE,105,0.0,0.0,70,0.00,CLR,,0.00,WeatherDisplay:10.37,2013-01-26 12:19:00,
2013-01-26 05:24:00,29.5,20.9,29.89,ESE,105,0.0,0.0,70,0.00,CLR,,0.00,WeatherDisplay:10.37,2013-01-26 12:24:00,
2013-01-26 05:30:00,29.1,20.2,29.89,ESE,105,0.0,0.0,69,0.00,,,0.00,Wunderground v.1.15,2013-01-26 12:30:00,
2013-01-26 05:53:00,29.5,20.9,29.89,ESE,105,0.0,0.0,70,0.00,CLR,,0.00,WeatherDisplay:10.37,2013-01-26 12:53:00,
2013-01-26 06:00:00,28.2,20.0,29.90,SSE,165,0.0,0.0,71,0.00,,,0.00,Wunderground v.1.15,2013-01-26 13:00:00,
2013-01-26 06:14:00,29.5,20.9,29.89,ESE,105,0.0,0.0,70,0.00,CLR,,0.00,WeatherDisplay:10.37,2013-01-26 13:14:00,
2013-01-26 06:19:00,29.5,20.9,29.89,ESE,105,0.0,0.0,70,0.00,CLR,,0.00,WeatherDisplay:10.37,2013-01-26 13:19:00,
2013-01-26 06:24:00,29.5,20.9,29.89,ESE,105,0.0,0.0,70,0.00,CLR,,0.00,WeatherDisplay:10.37,2013-01-26 13:24:00,
2013-01-26 06:29:00,29.5,20.9,29.89,ESE,105,0.0,0.0,70,0.00,CLR,,0.00,WeatherDisplay:10.37,2013-01-26 13:29:00,
2013-01-26 06:51:00,29.5,20.9,29.89,ESE,105,0.0,0.0,70,0.00,CLR,,0.00,WeatherDisplay:10.37,2013-01-26 13:51:00,
2013-01-26 07:00:00,33.2,22.7,29.90,WSW,256,0.0,0.0,65,0.00,,,0.00,Wunderground v.1.15,2013-01-26 14:00:00,
2013-01-26 07:09:00,29.5,20.9,29.89,ESE,105,0.0,0.0,70,0.00,CLR,,0.00,WeatherDisplay:10.37,2013-01-26 14:09:00,
2013-01-26 07:27:00,29.5,20.9,29.89,ESE,105,0.0,0.0,70,0.00,CLR,,0.00,WeatherDisplay:10.37,2013-01-26 14:27:00,
2013-01-26 08:00:00,35.8,23.3,29.90,WNW,286,0.0,0.0,60,0.00,,,0.00,Wunderground v.1.15,2013-01-26 15:00:00,
2013-01-26 08:05:00,29.5,20.9,29.89,ESE,105,0.0,0.0,70,0.00,CLR,,0.00,WeatherDisplay:10.37,2013-01-26 15:05:00,
2013-01-26 08:30:00,37.3,22.6,29.89,West,263,1.0,1.0,55,0.00,,,0.00,Wunderground v.1.15,2013-01-26 15:30:00,
2013-01-26 08:43:00,29.5,20.9,29.89,ESE,105,0.0,0.0,70,0.00,CLR,,0.00,WeatherDisplay:10.37,2013-01-26 15:43:00,
2013-01-26 08:48:00,29.5,20.9,29.89,ESE,105,0.0,0.0,70,0.00,CLR,,0.00,WeatherDisplay:10.37,2013-01-26 15:48:00,
2013-01-26 09:00:00,29.5,20.9,29.89,ESE,105,0.0,0.0,70,0.00,CLR,,0.00,WeatherDisplay:10.37,2013-01-26 16:00:00,
2013-01-26 09:30:00,43.8,24.9,29.87,SE,135,0.0,0.0,47,0.00,,,0.00,Wunderground v.1.15,2013-01-26 16:30:00,
2013-01-26 09:36:00,29.5,20.9,29.89,ESE,105,0.0,0.0,70,0.00,CLR,,0.00,WeatherDisplay:10.37,2013-01-26 16:36:00,
2013-01-26 09:52:00,29.5,20.9,29.89,ESE,105,0.0,0.0,70,0.00,CLR,,0.00,WeatherDisplay:10.37,2013-01-26 16:52:00,
2013-01-26 10:00:00,44.5,25.0,29.88,ENE,66,0.0,0.0,46,0.00,,,0.00,Wunderground v.1.15,2013-01-26 17:00:00,
2013-01-26 10:22:00,29.5,20.9,29.89,ESE,105,0.0,0.0,70,0.00,CLR,,0.00,WeatherDisplay:10.37,2013-01-26 17:22:00,
2013-01-26 10:28:00,29.5,20.9,29.89,ESE,105,0.0,0.0,70,0.00,CLR,,0.00,WeatherDisplay:10.37,2013-01-26 17:28:00,
2013-01-26 10:35:00,29.5,20.9,29.89,ESE,105,0.0,0.0,70,0.00,CLR,,0.00,WeatherDisplay:10.37,2013-01-26 17:35:00,
2013-01-26 10:40:00,29.5,20.9,29.89,ESE,105,0.0,0.0,70,0.00,CLR,,0.00,WeatherDisplay:10.37,2013-01-26 17:40:00,
2013-01-26 11:00:00,46.1,24.3,29.87,NE,51,1.0,1.0,42,0.00,,,0.00,Wunderground v.1.15,2013-01-26 18:00:00,
2013-01-26 11:29:00,29.5,20.9,29.89,ESE,105,0.0,0.0,70,0.00,CLR,,0.00,WeatherDisplay:10.37,2013-01-26 18:29:00,
2013-01-26 11:39:00,29.5,20.9,29.89,ESE,105,0.0,0.0,70,0.00,CLR,,0.00,WeatherDisplay:10.37,2013-01-26 18:39:00,
2013-01-26 12:00:00,48.6,23.5,29.87,NE,54,1.0,1.0,37,0.00,,,0.00,Wunderground v.1.15,2013-01-26 19:00:00,
2013-01-26 12:11:00,29.5,20.9,29.89,ESE,105,0.0,0.0,70,0.00,CLR,,0.00,WeatherDisplay:10.37,2013-01-26 19:11:00,
2013-01-26 12:17:00,29.5,20.9,29.89,ESE,105,0.0,0.0,70,0.00,CLR,,0.00,WeatherDisplay:10.37,2013-01-26 19:17:00,
2013-01-26 12:30:00,49.5,23.6,29.83,ENE,65,1.0,2.0,36,0.00,,,0.00,Wunderground v.1.15,2013-01-26 19:30:00,
2013-01-26 12:37:00,29.5,20.9,29.89,ESE,105,0.0,0.0,70,0.00,CLR,,0.00,WeatherDisplay:10.37,2013-01-26 19:37:00,
2013-01-26 12:46:00,29.5,20.9,29.89,ESE,105,0.0,0.0,70,0.00,CLR,,0.00,WeatherDisplay:10.37,2013-01-26 19:46:00,
2013-01-26 12:55:00,29.5,20.9,29.89,ESE,105,0.0,0.0,70,0.00,CLR,,0.00,WeatherDisplay:10.37,2013-01-26 19:55:00,
2013-01-26 13:12:00,29.5,20.9,29.89,ESE,105,0.0,0.0,70,0.00,CLR,,0.00,WeatherDisplay:10.37,2013-01-26 20:12:00,
2013-01-26 13:24:00,29.5,20.9,29.89,ESE,105,0.0,0.0,70,0.00,CLR,,0.00,WeatherDisplay:10.37,2013-01-26 20:24:00,
2013-01-26 13:32:00,29.5,20.9,29.89,ESE,105,0.0,0.0,70,0.00,CLR,,0.00,WeatherDisplay:10.37,2013-01-26 20:32:00,
2013-01-26 13:37:00,51.4,22.5,29.82,ESE,113,4.6,4.6,32,0.00,CLR,,0.00,WeatherDisplay:10.37,2013-01-26 20:37:00,
2013-01-26 13:42:00,51.1,23.0,29.82,ENE,73,3.5,3.5,33,0.00,CLR,,0.00,WeatherDisplay:10.37,2013-01-26 20:42:00,
2013-01-26 13:47:00,51.3,23.1,29.82,East,89,3.5,3.5,33,0.00,CLR,,0.00,WeatherDisplay:10.37,2013-01-26 20:47:00,
2013-01-26 13:52:00,51.1,23.0,29.82,SE,132,3.5,3.5,33,0.00,CLR,,0.00,WeatherDisplay:10.37,2013-01-26 20:52:00,
2013-01-26 13:57:00,51.6,23.4,29.81,ESE,114,3.5,3.5,33,0.00,CLR,,0.00,WeatherDisplay:10.37,2013-01-26 20:57:00,
2013-01-26 14:02:00,51.4,22.5,29.82,East,95,0.0,0.0,32,0.00,CLR,,0.00,WeatherDisplay:10.37,2013-01-26 21:02:00,
2013-01-26 14:07:00,51.6,22.7,29.82,ESE,123,0.0,0.0,32,0.00,CLR,,0.00,WeatherDisplay:10.37,2013-01-26 21:07:00,
2013-01-26 14:12:00,52.2,22.4,29.82,SSE,151,3.5,3.5,31,0.00,CLR,,0.00,WeatherDisplay:10.37,2013-01-26 21:12:00,
2013-01-26 14:17:00,52.6,22.8,29.81,ESE,117,1.0,1.5,31,0.00,CLR,,0.00,WeatherDisplay:10.37,2013-01-26 21:17:00,
2013-01-26 14:22:00,52.6,22.8,29.81,South,174,5.8,5.8,31,0.00,CLR,,0.00,WeatherDisplay:10.37,2013-01-26 21:22:00,
2013-01-26 14:25:00,52.6,22.8,29.81,SSE,152,5.8,5.8,31,0.00,CLR,,0.00,WeatherDisplay:10.37,2013-01-26 21:25:00,
2013-01-26 14:27:00,52.6,22.8,29.81,SSE,152,5.8,5.8,31,0.00,CLR,,0.00,WeatherDisplay:10.37,2013-01-26 21:27:00,
2013-01-26 14:32:00,52.6,22.8,29.81,SSE,152,5.8,5.8,31,0.00,CLR,,0.00,WeatherDisplay:10.37,2013-01-26 21:32:00,
2013-01-26 14:46:00,52.6,22.8,29.81,SSE,152,5.8,5.8,31,0.00,CLR,,0.00,WeatherDisplay:10.37,2013-01-26 21:46:00,
2013-01-26 15:00:00,52.3,22.5,29.81,ESE,116,1.0,1.0,31,0.00,,,0.00,Wunderground v.1.15,2013-01-26 22:00:00,
2013-01-26 15:19:00,52.6,22.8,29.81,SSE,152,5.8,5.8,31,0.00,CLR,,0.00,WeatherDisplay:10.37,2013-01-26 22:19:00,
2013-01-26 15:24:00,52.6,22.8,29.81,SSE,152,5.8,5.8,31,0.00,CLR,,0.00,WeatherDisplay:10.37,2013-01-26 22:24:00,
2013-01-26 15:29:00,52.6,22.8,29.81,SSE,152,5.8,5.8,31,0.00,CLR,,0.00,WeatherDisplay:10.37,2013-01-26 22:29:00,
2013-01-26 15:40:00,52.6,22.8,29.81,SSE,152,5.8,5.8,31,0.00,CLR,,0.00,WeatherDisplay:10.37,2013-01-26 22:40:00,
2013-01-26 16:00:00,49.6,23.0,29.82,SE,131,1.0,1.0,35,0.00,,,0.00,Wunderground v.1.15,2013-01-26 23:00:00,
2013-01-26 16:30:00,47.3,24.2,29.81,SE,132,0.0,0.0,40,0.00,,,0.00,Wunderground v.1.15,2013-01-26 23:30:00,
2013-01-26 17:00:00,44.2,24.2,29.82,SSE,162,0.0,0.0,45,0.00,,,0.00,Wunderground v.1.15,2013-01-27 00:00:00,
2013-01-26 17:25:00,52.6,22.8,29.81,SSE,152,5.8,5.8,31,0.00,CLR,,0.00,WeatherDisplay:10.37,2013-01-27 00:25:00,
2013-01-26 17:30:00,42.5,24.2,29.84,WSW,249,0.0,0.0,48,0.00,,,0.00,Wunderground v.1.15,2013-01-27 00:30:00,
2013-01-26 17:36:00,52.6,22.8,29.81,SSE,152,5.8,5.8,31,0.00,CLR,,0.00,WeatherDisplay:10.37,2013-01-27 00:36:00,
2013-01-26 17:47:00,52.6,22.8,29.81,SSE,152,5.8,5.8,31,0.00,CLR,,0.00,WeatherDisplay:10.37,2013-01-27 00:47:00,
2013-01-26 18:00:00,41.1,24.8,29.84,SW,215,0.0,0.0,52,0.00,,,0.00,Wunderground v.1.15,2013-01-27 01:00:00,
2013-01-26 18:30:00,38.3,23.5,29.83,SSE,162,0.0,0.0,55,0.00,,,0.00,Wunderground v.1.15,2013-01-27 01:30:00,
2013-01-26 18:50:00,52.6,22.8,29.81,SSE,152,5.8,5.8,31,0.00,CLR,,0.00,WeatherDisplay:10.37,2013-01-27 01:50:00,
2013-01-26 19:00:00,37.6,24.6,29.83,SSE,162,0.0,0.0,59,0.00,,,0.00,Wunderground v.1.15,2013-01-27 02:00:00,
2013-01-26 19:14:00,52.6,22.8,29.81,SSE,152,5.8,5.8,31,0.00,CLR,,0.00,WeatherDisplay:10.37,2013-01-27 02:14:00,
2013-01-26 19:22:00,52.6,22.8,29.81,SSE,152,5.8,5.8,31,0.00,CLR,,0.00,WeatherDisplay:10.37,2013-01-27 02:22:00,
2013-01-26 19:27:00,52.6,22.8,29.81,SSE,152,5.8,5.8,31,0.00,CLR,,0.00,WeatherDisplay:10.37,2013-01-27 02:27:00,
2013-01-26 19:32:00,52.6,22.8,29.81,SSE,152,5.8,5.8,31,0.00,CLR,,0.00,WeatherDisplay:10.37,2013-01-27 02:32:00,
2013-01-26 19:56:00,52.6,22.8,29.81,SSE,152,5.8,5.8,31,0.00,CLR,,0.00,WeatherDisplay:10.37,2013-01-27 02:56:00,
2013-01-26 20:16:00,52.6,22.8,29.81,SSE,152,5.8,5.8,31,0.00,CLR,,0.00,WeatherDisplay:10.37,2013-01-27 03:16:00,
2013-01-26 20:30:00,35.0,23.7,29.80,SSW,208,0.0,0.0,63,0.00,,,0.00,Wunderground v.1.15,2013-01-27 03:30:00,
2013-01-26 20:44:00,52.6,22.8,29.81,SSE,152,5.8,5.8,31,0.00,CLR,,0.00,WeatherDisplay:10.37,2013-01-27 03:44:00,
2013-01-26 21:00:00,34.4,23.8,29.79,SW,230,0.0,0.0,65,0.00,,,0.00,Wunderground v.1.15,2013-01-27 04:00:00,
2013-01-26 21:05:00,52.6,22.8,29.81,SSE,152,5.8,5.8,31,0.00,CLR,,0.00,WeatherDisplay:10.37,2013-01-27 04:05:00,
2013-01-26 21:14:00,52.6,22.8,29.81,SSE,152,5.8,5.8,31,0.00,CLR,,0.00,WeatherDisplay:10.37,2013-01-27 04:14:00,
2013-01-26 21:30:00,34.4,23.8,29.77,SW,231,0.0,0.0,65,0.00,,,0.00,Wunderground v.1.15,2013-01-27 04:30:00,
2013-01-26 22:21:00,52.6,22.8,29.81,SSE,152,5.8,5.8,31,0.00,CLR,,0.00,WeatherDisplay:10.37,2013-01-27 05:21:00,
2013-01-26 22:30:00,32.2,22.8,29.77,SW,226,0.0,0.0,68,0.00,,,0.00,Wunderground v.1.15,2013-01-27 05:30:00,
2013-01-26 22:55:00,52.6,22.8,29.81,SSE,152,5.8,5.8,31,0.00,CLR,,0.00,WeatherDisplay:10.37,2013-01-27 05:55:00,
2013-01-26 23:00:00,32.5,23.5,29.77,SW,226,0.0,0.0,69,0.00,,,0.00,Wunderground v.1.15,2013-01-27 06:00:00,
2013-01-26 23:25:00,52.6,22.8,29.81,SSE,152,5.8,5.8,31,0.00,CLR,,0.00,WeatherDisplay:10.37,2013-01-27 06:25:00,
2013-01-26 23:38:00,52.6,22.8,29.81,SSE,152,5.8,5.8,31,0.00,CLR,,0.00,WeatherDisplay:10.37,2013-01-27 06:38:00,
2013-01-26 23:44:00,52.6,22.8,29.81,SSE,152,5.8,5.8,31,0.00,CLR,,0.00,WeatherDisplay:10.37,2013-01-27 06:44:00,